User: anonymous   Login
Location: Goheenville
(40.9070°N, 79.3720°W)
Time: 21:31:43
(UTC-05:00)
Language:

Cosmos 1727 Rocket - Orbit

View from above orbital plane
View from above orbital plane
View from above satellite
View from above satellite

Ground track
Ground track

The orbit data is extracted from the following two-line orbital elements,

1 16511U 86008B   15063.18063521  .00000136  00000-0  12478-3 0  9992
2 16511 082.9441 119.8991 0025761 098.0337 287.6235 13.75783904461329
Epoch (UTC): 04 March 2015 04:20:06
Eccentricity: 0.0025761
inclination: 82.9441°
perigee height: 960 km
apogee height: 998 km
right ascension of ascending node: 119.8991°
argument of perigee: 98.0337°
revolutions per day: 13.75783904
mean anomaly at epoch: 287.6235°
orbit number at epoch: 46132

The dashed part of the orbit path shows where the satellite is in the earth's shadow,  

DLR